KB0BDN-13 Weather Reports


Display with metric or nautical units.
time (UTC)temp
F
wind
direction
speed
MPH
gust
MPH
rain 1hr
in
rain 24hr
in
rain mn
in
humidity
%
barometer
mb
20260503020206 44 182 0.0 0.0 0.00 0.00 0.00 50 1003.0
20260503014706 45 182 0.0 3.0 0.00 0.00 0.00 48 1002.8
20260503013206 46 182 0.0 0.0 0.00 0.00 0.00 47 1002.8
20260503011706 46 182 0.0 6.0 0.00 0.00 0.00 47 1002.6
20260503010206 47 182 0.0 1.0 0.00 0.00 0.00 46 1002.7
20260503004706 48 182 1.0 4.0 0.00 0.00 0.00 46 1002.7
20260503003206 48 182 0.0 0.0 0.00 0.00 0.00 45 1003.1
20260503001706 49 182 4.0 5.0 0.00 0.00 0.00 44 1003.2
20260503000206 49 182 0.0 5.0 0.00 0.00 0.00 43 1003.3
20260502234706 50 182 0.0 4.0 0.00 0.00 0.00 43 1003.6
20260502233206 50 182 0.0 4.0 0.00 0.00 0.00 43 1003.8
20260502231706 50 182 0.0 6.0 0.00 0.00 0.00 44 1003.9
20260502230206 51 182 0.0 2.0 0.00 0.00 0.00 42 1004.0
20260502224706 51 173 1.0 8.0 0.00 0.00 0.00 42 1004.2
20260502223206 51 173 0.0 6.0 0.00 0.00 0.00 40 1004.3
20260502221706 52 167 0.0 6.0 0.00 0.00 0.00 38 1004.3
20260502220205 54 165 6.0 6.0 0.00 0.00 0.00 38 1004.2
20260502214704 54 171 0.0 10.0 0.00 0.00 0.00 36 1004.4
20260502213204 55 257 2.0 3.0 0.00 0.00 0.00 36 1004.5
20260502211704 55 277 0.0 7.0 0.00 0.00 0.00 36 1004.7
20260502210204 57 280 0.0 3.0 0.00 0.00 0.00 32 1005.0
20260502204704 57 286 0.0 9.0 0.00 0.00 0.00 30 1005.1
20260502203204 56 279 6.0 9.0 0.00 0.00 0.00 31 1005.3
20260502201704 55 267 0.0 10.0 0.00 0.00 0.00 32 1005.7
20260502200203 55 232 2.0 10.0 0.00 0.00 0.00 31 1005.8
20260502194704 56 252 2.0 9.0 0.00 0.00 0.00 31 1006.0
20260502193203 56 262 2.0 4.0 0.00 0.00 0.00 32 1006.2
20260502191703 56 250 1.0 7.0 0.00 0.00 0.00 32 1006.4
20260502190203 55 249 1.0 3.0 0.00 0.00 0.00 32 1006.8
20260502184703 55 261 3.0 8.0 0.00 0.00 0.00 33 1006.9
20260502183203 54 257 0.0 2.0 0.00 0.00 0.00 34 1007.1
20260502181703 52 247 5.0 8.0 0.00 0.00 0.00 33 1007.5
20260502180203 52 263 0.0 6.0 0.00 0.00 0.00 34 1007.7
20260502170203 51 314 3.0 5.0 0.00 0.00 0.00 35 1008.8
20260502163203 50 323 3.0 6.0 0.00 0.00 0.00 37 1009.3
20260502161703 50 326 0.0 8.0 0.00 0.00 0.00 37 1009.4
20260502160203 49 327 0.0 8.0 0.00 0.00 0.00 38 1009.8
20260502151703 49 326 0.0 7.0 0.00 0.00 0.00 38 1010.3
20260502150203 48 328 5.0 6.0 0.00 0.00 0.00 39 1010.6
20260502130203 35 355 0.0 0.0 0.00 0.00 0.00 76 1011.4
20260502123203 30 355 0.0 0.0 0.00 0.00 0.00 96 1011.5
20260502121703 26 355 0.0 0.0 0.00 0.00 0.00 95 1011.6
20260502120203 23 355 0.0 0.0 0.00 0.00 0.00 95 1011.6
20260502114703 21 355 0.0 0.0 0.00 0.00 0.00 94 1011.6
20260502113203 20 355 0.0 0.0 0.00 0.00 0.00 94 1011.7
20260502111703 20 355 0.0 0.0 0.00 0.00 0.00 94 1011.7
20260502110203 19 355 0.0 0.0 0.00 0.00 0.00 94 1011.5
20260502104703 20 355 0.0 0.0 0.00 0.00 0.00 94 1011.7
20260502103203 20 355 0.0 0.0 0.00 0.00 0.00 94 1011.8
20260502101703 20 355 0.0 0.0 0.00 0.00 0.00 94 1011.8
20260502100203 19 355 0.0 0.0 0.00 0.00 0.00 93 1011.9
20260502090203 20 355 0.0 0.0 0.00 0.00 0.00 93 1012.0
20260502070202 22 355 0.0 0.0 0.00 0.00 0.00 92 1012.4
20260502064702 22 355 0.0 0.0 0.00 0.00 0.00 92 1012.5
20260502063202 22 355 0.0 0.0 0.00 0.00 0.00 91 1012.6
20260502061702 22 355 0.0 0.0 0.00 0.00 0.00 91 1012.6
20260502060202 23 355 0.0 0.0 0.00 0.00 0.00 91 1012.7
20260502054702 23 355 0.0 0.0 0.00 0.00 0.00 91 1012.7
20260502053202 23 355 0.0 0.0 0.00 0.00 0.00 90 1012.8
20260502051702 24 355 0.0 0.0 0.00 0.00 0.00 89 1012.8
20260502050202 24 355 0.0 0.0 0.00 0.00 0.00 89 1012.9
20260502044702 24 355 0.0 0.0 0.00 0.00 0.00 88 1012.9
20260502043202 25 355 0.0 0.0 0.00 0.00 0.00 87 1012.9
20260502041702 25 355 0.0 0.0 0.00 0.00 0.00 86 1012.9
20260502040202 26 355 0.0 0.0 0.00 0.00 0.00 85 1012.9
20260502034702 26 355 0.0 0.0 0.00 0.00 0.00 84 1012.9
20260502033202 27 355 0.0 0.0 0.00 0.00 0.00 83 1012.9
20260502031702 27 355 0.0 0.0 0.00 0.00 0.00 81 1012.9
20260502030202 28 355 0.0 0.0 0.00 0.00 0.00 79 1012.8
20260502024702 28 355 0.0 0.0 0.00 0.00 0.00 77 1012.8
20260502023202 29 355 0.0 0.0 0.00 0.00 0.00 74 1012.8
20260502021702 31 355 0.0 0.0 0.00 0.00 0.00 71 1012.8